Flag for South Korea Weather past 2 weeks in Incheon, South Korea

32 °F

Ice fog.

Feels Like: 26 °F
Forecast: 32 / 47 °F
Wind: 7 mph from East

Location: Incheon International Airport

Current Time: Dec 1, 2015 at 7:58:05 AM

Latest Report: Dec 1, 2015 at 7:00 AM

Visibility: 3 mi

Pressure: 30.30 "Hg

Humidity: 80%

Dew point: 27 °F

Location of IncheonLocation

Historic Weather in Incheon — Graph


Incheon temperature yesterday

Maximum temperature yesterday: 46 °F (at 1:30 AM)
Minimum temperature yesterday: 34 °F (at 11:30 PM)
Average temperature yesterday: 40 °F

Past Weeks' High & Low Weather Summary

High63 °F (Nov 17, 1:00 PM)93% (Nov 25, 6:30 AM)30.45 "Hg (Nov 25, 6:30 AM)
Low25 °F (Nov 27, 1:00 AM)41% (Nov 21, 1:00 PM)29.95 "Hg (Nov 16, 4:00 PM)
Average43 °F70%30.22 "Hg
* Reported Nov 16 6:00 AM — Dec 1 6:30 AM, Incheon, Weather by CustomWeather, © 2015

Note: Actual official high and low records may vary slightly from our data, if they occured in-between our weather recording intervals... More about our weather records


Incheon weather history for previous 24 hours

Time TempWeatherWind HumidityBarometerVisibility
6:30 AM
Tue, Dec 1
30 °FIce fog.6 mph86%30.33 "Hg3 mi
6:00 AM32 °FIce fog.7 mph80%30.30 "Hg3 mi
5:30 AM32 °FIce fog.6 mph80%30.30 "Hg3 mi
5:00 AM32 °FIce fog.6 mph80%30.30 "Hg3 mi
4:30 AM32 °FIce fog.5 mph87%30.30 "Hg3 mi
4:00 AM32 °FIce fog.6 mph80%30.30 "Hg3 mi
3:30 AM32 °FIce fog.6 mph80%30.30 "Hg3 mi
3:00 AM32 °FIce fog.6 mph80%30.30 "Hg3 mi
2:30 AM32 °FIce fog.7 mph80%30.30 "Hg3 mi
2:00 AM32 °FIce fog.5 mph80%30.30 "Hg3 mi
1:30 AM34 °FFog.6 mph81%30.30 "Hg3 mi
1:00 AM34 °FFog.7 mph81%30.30 "Hg3 mi
12:30 AM34 °FFog.7 mph81%30.30 "Hg3 mi
12:00 AM34 °FFog.7 mph75%30.30 "Hg3 mi
11:30 PM
Mon, Nov 30
34 °FClear.7 mph75%30.30 "Hg4 mi
11:00 PM36 °FClear.6 mph70%30.30 "Hg5 mi
10:30 PM36 °FClear.5 mph70%30.30 "Hg10 mi
10:00 PM36 °FClear.5 mph65%30.30 "Hg10 mi
9:30 PM37 °FClear.6 mph60%30.30 "Hg10 mi
9:00 PM36 °FClear.5 mph65%30.30 "Hg10 mi
8:30 PM37 °FClear.3 mph60%30.27 "Hg10 mi
8:00 PM37 °FClear.2 mph60%30.27 "Hg10 mi
7:30 PM39 °FClear.2 mph61%30.27 "Hg10 mi
7:00 PM39 °FClear.2 mph56%30.27 "Hg10 mi
6:30 PM37 °FClear.6 mph60%30.27 "Hg10 mi
6:00 PM41 °FSunny.6 mph57%30.24 "Hg10 mi
5:30 PM39 °FSunny.7 mph56%30.24 "Hg10 mi
5:00 PM41 °FSunny.7 mph57%30.24 "Hg10 mi
4:00 PM43 °FSunny.9 mph49%30.24 "Hg10 mi
3:30 PM43 °FSunny.9 mph46%30.24 "Hg10 mi
3:00 PM43 °FSunny.10 mph42%30.24 "Hg10 mi
2:30 PM43 °FPassing clouds.10 mph46%30.24 "HgN/A
2:00 PM45 °FPassing clouds.9 mph49%30.24 "HgN/A
1:30 PM43 °FPassing clouds.9 mph46%30.24 "HgN/A
12:30 PM43 °FPassing clouds.8 mph57%30.27 "HgN/A
12:00 PM43 °FPassing clouds.8 mph53%30.27 "HgN/A
11:30 AM43 °FPassing clouds.7 mph57%30.27 "HgN/A
11:00 AM43 °FPassing clouds.7 mph57%30.27 "HgN/A
10:30 AM41 °FPassing clouds.7 mph61%30.27 "HgN/A
9:30 AM41 °FPassing clouds.9 mph66%30.27 "Hg5 mi
9:00 AM39 °FPassing clouds.7 mph75%30.27 "Hg4 mi
8:30 AM39 °FScattered clouds.8 mph75%30.24 "Hg4 mi
8:00 AM39 °FPassing clouds.8 mph75%30.24 "Hg4 mi
7:30 AM39 °FFog.8 mph75%30.24 "Hg3 mi
7:00 AM39 °FFog.7 mph75%30.24 "Hg2 mi
Weather by CustomWeather, © 2015

See weather overviewHow to use our weather pages